This demonstration page uses our WeatherBlox Daily Observations layout. Learn more.

Left ArrowRight Arrow

Hourly Observations for June 29, 2022

Temp ( °F °C ) Dew Point ( °F °C ) Humidity (%) Winds ( mph kmh ) Pressure ( in mb ) Visibility ( mi km ) Precip ( " mm )
12:15 am 00:15 Clear 70 21 56 13.5 62 62 S 10 17 30.03 1017 10 16 0.00 0.00
12:35 am 00:35 Clear 69 20.8 56 13.5 63 63 S 12 19 30.03 1017 10 16 0.00 0.00
12:55 am 00:55 Clear 69 20.5 56 13.3 63 63 S 12 19 30.03 1017 10 16 0.00 0.00
1:15 am 01:15 Clear 68 19.9 56 13.3 66 66 S 9 15 30.04 1017 10 16 0.00 0.00
1:35 am 01:35 Clear 67 19.7 56 13.2 66 66 S 9 15 30.04 1017 10 16 0.00 0.00
1:55 am 01:55 Clear 67 19.3 56 13.1 68 68 SSW 9 15 30.04 1017 10 16 0.00 0.00
2:15 am 02:15 Clear 67 19.5 55 12.8 65 65 SSW 9 15 30.04 1017 10 16 0.00 0.00
2:35 am 02:35 Clear 67 19.2 55 12.6 66 66 SSW 8 13 30.04 1017 10 16 0.00 0.00
2:55 am 02:55 Clear 67 19.5 55 12.5 64 64 SSW 9 15 30.04 1017 10 16 0.00 0.00
3:15 am 03:15 Clear 67 19.3 55 12.5 65 65 SSW 8 13 30.04 1017 10 16 0.00 0.00
3:35 am 03:35 Clear 66 19 55 12.5 66 66 SSW 9 15 30.05 1017 10 16 0.00 0.00
3:55 am 03:55 Clear 65 18.6 55 12.5 68 68 SSW 9 15 30.05 1018 10 16 0.00 0.00
4:15 am 04:15 Clear 65 18.1 55 12.6 70 70 S 9 15 30.05 1018 10 16 0.00 0.00
4:35 am 04:35 Clear 63 17.1 55 12.7 75 75 S 7 11 30.06 1018 10 16 0.00 0.00
4:55 am 04:55 Clear 61 16.3 55 13 81 81 S 6 9 30.07 1018 10 16 0.00 0.00
5:15 am 05:15 Clear 61 15.9 55 12.7 81 81 SSE 7 11 30.07 1018 10 16 0.00 0.00
5:35 am 05:35 Clear 61 15.9 55 12.6 81 81 S 6 9 30.08 1019 10 16 0.00 0.00
5:55 am 05:55 Clear 60 15.7 55 12.6 82 82 S 7 11 30.08 1019 10 16 0.00 0.00
6:15 am 06:15 Sunny 59 15.2 55 12.5 84 84 S 7 11 30.09 1019 10 16 0.00 0.00
6:35 am 06:35 Sunny 60 15.5 55 12.6 83 83 S 8 13 30.07 1018 10 16 0.00 0.00
6:55 am 06:55 Sunny 61 16.2 55 12.9 81 81 S 8 13 30.07 1018 10 16 0.00 0.00
7:35 am 07:35 Sunny 65 18.5 56 13.5 73 73 S 8 13 30.05 1018 10 16 0.00 0.00
7:55 am 07:55 Sunny 67 19.5 57 13.7 69 69 S 10 17 30.03 1017 10 16 0.00 0.00
8:15 am 08:15 Sunny 69 20.3 57 14 67 67 S 10 17 30.02 1017 10 16 0.00 0.00
8:35 am 08:35 Sunny 71 21.4 58 14.4 65 65 SSW 12 19 30.02 1016 10 16 0.00 0.00
8:55 am 08:55 Sunny 73 22.5 58 14.6 61 61 S 10 17 30.01 1016 10 16 0.00 0.00
9:15 am 09:15 Sunny 74 23.4 59 15 59 59 SSW 14 22 30.01 1016 10 16 0.00 0.00
9:35 am 09:35 Sunny 76 24.3 60 15.4 58 58 SSW 14 22 29.99 1016 10 16 0.00 0.00
9:55 am 09:55 Sunny 77 25.2 60 15.8 56 56 SSW 15 24 29.99 1016 10 16 0.00 0.00
10:15 am 10:15 Sunny 80 26.5 62 16.4 54 54 SSW 16 26 29.97 1015 10 16 0.00 0.00
10:35 am 10:35 Sunny 81 27.3 62 16.7 52 52 SSW 14 22 29.96 1014 10 16 0.00 0.00
10:55 am 10:55 Sunny 82 27.9 62 16.7 51 51 S 14 22 29.95 1014 10 16 0.00 0.00
11:15 am 11:15 Sunny 84 28.8 62 16.8 48 48 S 16 26 29.94 1014 10 16 0.00 0.00
11:35 am 11:35 Sunny 86 30 62 16.5 44 44 S 17 28 29.93 1013 10 16 0.00 0.00
11:55 am 11:55 Sunny 88 31.1 57 13.8 35 35 SSW 17 28 29.92 1013 10 16 0.00 0.00
12:15 pm 12:15 Sunny 89 31.9 55 12.7 31 31 S 20 31 29.90 1013 10 16 0.00 0.00
12:35 pm 12:35 Sunny 90 32.1 56 13.3 32 32 S 21 33 29.89 1012 7 11 0.00 0.00
12:55 pm 12:55 Hazy 91 32.5 54 12.3 29 29 S 24 39 29.89 1012 5 8 0.00 0.00
1:15 pm 13:15 Sunny 91 33 54 12 28 28 S 23 37 29.88 1012 7 11 0.00 0.00
1:35 pm 13:35 Sunny 92 33.3 52 10.9 25 25 S 23 37 29.87 1012 10 16 0.00 0.00
1:55 pm 13:55 Sunny 92 33.5 55 12.7 28 28 S 25 41 29.87 1012 10 16 0.00 0.00
2:15 pm 14:15 Sunny 93 33.7 55 12.8 28 28 S 20 31 29.85 1011 10 16 0.00 0.00
2:35 pm 14:35 Sunny 93 34 53 11.8 26 26 S 26 43 29.85 1011 10 16 0.00 0.00
2:55 pm 14:55 Sunny 93 34.1 53 11.5 25 25 S 24 39 29.85 1011 7 11 0.00 0.00
3:15 pm 15:15 Sunny 93 34 51 10.7 24 24 S 25 41 29.83 1010 10 16 0.00 0.00
3:35 pm 15:35 Sunny 93 34 50 10.2 23 23 S 23 37 29.83 1010 10 16 0.00 0.00
3:55 pm 15:55 Sunny 93 34.1 51 10.8 24 24 S 22 35 29.82 1010 10 16 0.00 0.00
4:15 pm 16:15 Sunny 92 33.3 53 11.9 27 27 S 22 35 29.81 1010 10 16 0.00 0.00
4:35 pm 16:35 Sunny 92 33.4 54 12.4 28 28 S 23 37 29.80 1009 10 16 0.00 0.00
4:55 pm 16:55 Sunny 92 33.4 56 13.2 29 29 S 21 33 29.80 1009 10 16 0.00 0.00
5:15 pm 17:15 Sunny 93 33.9 56 13.4 29 29 S 25 41 29.79 1009 10 16 0.00 0.00
5:35 pm 17:35 Sunny 92 33.4 55 13 29 29 S 23 37 29.79 1009 10 16 0.00 0.00
5:55 pm 17:55 Sunny 92 33.3 56 13.1 29 29 S 23 37 29.79 1009 10 16 0.00 0.00
6:15 pm 18:15 Sunny 91 32.8 56 13.1 30 30 S 21 33 29.79 1009 10 16 0.00 0.00
6:35 pm 18:35 Sunny 91 32.5 56 13.2 31 31 S 24 39 29.79 1009 10 16 0.00 0.00
6:55 pm 18:55 Sunny 89 31.7 56 13.1 32 32 S 17 28 29.79 1009 10 16 0.00 0.00
7:15 pm 19:15 Sunny 88 31.2 56 13.1 33 33 S 16 26 29.79 1009 10 16 0.00 0.00
7:35 pm 19:35 Sunny 87 30.8 56 13.3 34 34 S 16 26 29.78 1009 10 16 0.00 0.00
7:55 pm 19:55 Sunny 86 29.9 55 12.6 35 35 S 20 31 29.79 1009 10 16 0.00 0.00
8:15 pm 20:15 Sunny 85 29.2 55 12.6 36 36 S 20 31 29.79 1009 10 16 0.00 0.00
8:35 pm 20:35 Sunny 83 28.6 55 12.7 37 37 S 18 30 29.80 1009 10 16 0.00 0.00
8:55 pm 20:55 Sunny 83 28.1 55 12.6 38 38 S 17 28 29.81 1010 10 16 0.00 0.00
9:15 pm 21:15 Clear 82 27.5 55 12.5 39 39 S 18 30 29.82 1010 10 16 0.00 0.00
9:35 pm 21:35 Clear 81 27 55 12.7 41 41 S 17 28 29.82 1010 10 16 0.00 0.00
9:55 pm 21:55 Clear 80 26.6 55 12.6 42 42 S 17 28 29.83 1010 10 16 0.00 0.00
10:15 pm 22:15 Clear 80 26.5 55 12.5 42 42 S 17 28 29.82 1010 10 16 0.00 0.00
10:35 pm 22:35 Clear 79 26 55 12.5 43 43 S 20 31 29.84 1010 10 16 0.00 0.00
10:55 pm 22:55 Clear 78 25.8 55 12.5 44 44 S 18 30 29.84 1011 10 16 0.00 0.00
11:15 pm 23:15 Clear 78 25.5 54 12.3 44 44 S 20 31 29.84 1011 10 16 0.00 0.00
11:35 pm 23:35 Clear 77 25.1 55 12.5 46 46 S 17 28 29.86 1011 10 16 0.00 0.00
11:55 pm 23:55 Clear 76 24.7 55 12.6 47 47 S 18 30 29.86 1011 10 16 0.00 0.00

Powered by AerisWeather